EGLLEGLC

Guest
Details From EGLL - London Heathrow
To EGLC - London City
Flight Number -
Tags Routegen
Created
Modified
Stats Distance 20 nm / 37 km
Max Altitude 0 ft / 0 m
Waypoints 2
Social Downloads 9
Likes 0
Share VATSIM

Download

Looking for another format? Having issues loading an existing format? Contact us
Advertisement - Login to hide

Notes

None

Route

EGLL EGLC

ID Type Via Altitude (ft/m) Position (lat/lon) Dist (leg/tot) Name
O EGLL APT - 0 / 0 51.47747 / -0.48963 - / 0 nm
O EGLC APT - 0 / 0 51.50558 / 0.04414 20 / 20 nm

Altitude Profile

Advertisement - Login to hide

EGLL

Details ICAO EGLL (LHR)
Name London Heathrow
Region United Kingdom
Timezone Europe/London (UTC+0.0)
Stats Elevation 83 ft / 25 m (AMSL)
Location 51.471200° -0.460884°
Runways 2
Magnetic Variation 0.372° W

METAR

EGLL 260020Z AUTO VRB02KT 9999 NCD 05/01 Q1035 NOSIG

Decode

TAF

TAF EGLL 252252Z 2600/2706 VRB03KT 9999 FEW040 PROB40 2602/2609 8000 BECMG 2608/2611 33010KT BECMG 2620/2623 VRB03KT

Decode

Departure Runways

ID Width Length Bearing (true/mag) Surface Threshold Overrun Markings Lighting
09L 164 ft / 50 m 12,764 ft / 3,891 m 89.67° / 90.04° ASPHALT 1,010 ft / 308 m 0 ft / 0 m UK-PREC-APP CENTERLINE EDGE THRESHOLD CALVERT-ILS TDZ
09R 164 ft / 50 m 11,970 ft / 3,649 m 89.68° / 90.05° ASPHALT 1,001 ft / 305 m 0 ft / 0 m UK-PREC-APP CENTERLINE EDGE THRESHOLD CALVERT-ILS TDZ
27L 164 ft / 50 m 11,970 ft / 3,649 m 269.72° / 270.09° ASPHALT 0 ft / 0 m 89 ft / 27 m UK-PREC-APP CENTERLINE EDGE THRESHOLD CALVERT-ILS TDZ
27R 164 ft / 50 m 12,764 ft / 3,891 m 269.71° / 270.08° ASPHALT 0 ft / 0 m 184 ft / 56 m UK-PREC-APP CENTERLINE EDGE THRESHOLD CALVERT-ILS TDZ

EGLC

Details ICAO EGLC (LCY)
Name London City
Region United Kingdom
Timezone Europe/London (UTC+0.0)
Stats Elevation 19 ft / 6 m (AMSL)
Location 51.505200° 0.055183°
Runways 1
Magnetic Variation 0.198° W

METAR

EGLC 260020Z AUTO 00000KT 9999 NCD 06/02 Q1035

Decode

TAF

Not found

Destination Runways

ID Width Length Bearing (true/mag) Surface Threshold Overrun Markings Lighting
09 98 ft / 30 m 4,914 ft / 1,498 m 92.88° / 93.08° ASPHALT 308 ft / 94 m 190 ft / 58 m UK-PREC-APP CENTERLINE EDGE THRESHOLD MALS REIL-OMNI
27 98 ft / 30 m 4,914 ft / 1,498 m 272.90° / 273.09° ASPHALT 233 ft / 71 m 302 ft / 92 m UK-PREC-APP CENTERLINE EDGE THRESHOLD MALS REIL-OMNI

Approach Navaids

Runway Type Ident Frequency Range Bearing (true/mag) Slope Elevation
09 LOC-ILS ILST 111.15 MHz 25 nm / 46 km 92.89° / 93.09 ° - 19 ft / 6 m (AMSL)
09 DME ILST 111.15 MHz 18 nm / 33 km - - 48 ft / 15 m (AMSL)
09 GS ILST 111.15 MHz 10 nm / 19 km 92.87° / 93.07 ° 5.50° 19 ft / 6 m (AMSL)
27 DME ILSR 111.15 MHz 18 nm / 33 km - - 48 ft / 15 m (AMSL)
27 GS ILSR 111.15 MHz 10 nm / 19 km 272.87° / 273.07 ° 5.50° 19 ft / 6 m (AMSL)
27 LOC-ILS ILSR 111.15 MHz 25 nm / 46 km 272.89° / 273.09 ° - 19 ft / 6 m (AMSL)

Popular Alternatives